Imperial, CA

6:45 AM PDT on July 21, 2017 (GMT -0700)
Imperial County

Weather History for KIPL - August, 2014

Change the Weather History Date:

Saturday, August 30, 2014

  Actual Average Record
Temperature  
Mean Temperature 95 °F -  
Max Temperature 113 °F 105 °F 117 °F (1998)
Min Temperature 79 °F 77 °F 65 °F (1953)
Cooling Degree Days 30    
Growing Degree Days 45 (Base 50)    
Moisture  
Dew Point 46 °F    
Average Humidity 20    
Maximum Humidity 36    
Minimum Humidity 8    
Precipitation  
Precipitation 0.00 in - - ()
Sea Level Pressure  
Sea Level Pressure 29.65 in    
Wind  
Wind Speed 6 mph (South)    
Max Wind Speed 17 mph    
Max Gust Speed -    
Visibility 10 miles    
Events Rain    
Averages and records for this station are not official NWS values.
T = Trace of Precipitation, MM = Missing Value Source: NWS Daily Summary

Daily Weather History Graph

Daily Weather History Graph

Search for Another Location

Airport or City:

Trip Planner

Search our weather history database for the weather conditions in past years. The results will help you decide how hot, cold, wet, or windy it might be!

Date:

Astronomy

Aug. 30, 2014 Rise Set
Actual Time 6:15 AM PDT 7:09 PM PDT
Civil Twilight 5:50 AM PDT 7:34 PM PDT
Nautical Twilight 5:20 AM PDT 8:04 PM PDT
Astronomical Twilight 4:49 AM PDT 8:35 PM PDT
Moon 10:50 AM PDT (8/30) 10:04 PM PDT (8/30)
Length of Visible Light 13h 44m
Length of Day
12h 53m
Waxing Crescent, 24% of the Moon is Illuminated
Aug 30
Waxing Crescent
Sep 2
First Quarter
Sep 8
Full
Sep 15
Last Quarter
Sep 23
New

Hourly Weather History & Observations

Time (PDT) Temp. Dew Point Humidity Pressure Visibility Wind Dir Wind Speed Gust Speed Precip Events Conditions
12:53 AM 87.1 °F 48.9 °F 27% 29.67 in 10.0 mi WNW 8.1 mph - N/A   Clear
1:53 AM 82.9 °F 51.1 °F 33% 29.66 in 10.0 mi WNW 5.8 mph - N/A   Clear
2:53 AM 84.9 °F 46.9 °F 27% 29.66 in 10.0 mi SW 4.6 mph - N/A   Clear
3:53 AM 82.9 °F 46.9 °F 28% 29.66 in 10.0 mi West 4.6 mph - N/A   Clear
4:53 AM 82.9 °F 44.1 °F 25% 29.66 in 10.0 mi Calm Calm - N/A   Clear
5:53 AM 80.1 °F 48.0 °F 32% 29.67 in 10.0 mi Calm Calm - N/A   Clear
6:53 AM 79.0 °F 50.0 °F 36% 29.69 in 10.0 mi SSW 3.5 mph - N/A   Clear
7:53 AM 82.9 °F 50.0 °F 32% 29.70 in 10.0 mi SW 3.5 mph - N/A   Clear
8:53 AM 91.0 °F 48.0 °F 23% 29.70 in 10.0 mi SSW 5.8 mph - N/A   Clear
9:53 AM 98.1 °F 42.1 °F 15% 29.71 in 10.0 mi South 4.6 mph - N/A   Clear
10:53 AM 100.9 °F 39.9 °F 12% 29.71 in 10.0 mi Calm Calm - N/A   Clear
11:53 AM 104.0 °F 43.0 °F 13% 29.70 in 10.0 mi Variable 5.8 mph - N/A   Clear
12:53 PM 106.0 °F 44.1 °F 12% 29.68 in 10.0 mi North - - N/A   Clear
1:53 PM 109.0 °F 42.1 °F 10% 29.65 in 10.0 mi ESE 9.2 mph - N/A   Clear
2:53 PM 109.9 °F 41.0 °F 10% 29.62 in 10.0 mi SE 9.2 mph - N/A   Clear
3:53 PM 111.9 °F 37.9 °F 8% 29.60 in 10.0 mi ESE 8.1 mph - N/A   Clear
4:53 PM 111.9 °F 46.0 °F 11% 29.59 in 10.0 mi East 13.8 mph - N/A   Clear
5:53 PM 109.9 °F 46.9 °F 12% 29.58 in 10.0 mi ESE 12.7 mph - N/A   Clear
6:53 PM 106.0 °F 46.0 °F 13% 29.59 in 10.0 mi SE 17.3 mph - 0.00 in Rain Light Rain
7:53 PM 104.0 °F 46.4 °F 14% 29.60 in 10.0 mi SSE 13.8 mph - N/A   Clear
8:53 PM 98.1 °F 48.0 °F 18% 29.63 in 10.0 mi SSW 9.2 mph - 0.00 in   Clear
9:53 PM 96.1 °F 46.9 °F 19% 29.64 in 10.0 mi SSW 4.6 mph - N/A   Clear
10:53 PM 96.1 °F 46.9 °F 19% 29.64 in 10.0 mi South 8.1 mph - N/A   Clear
11:53 PM 91.9 °F 48.0 °F 22% 29.64 in 10.0 mi Calm Calm - N/A   Clear